Regional Weather Roundup
Issued by NWS

Home | Current Version | Previous Version | Graphics & Text | Print | Product List | Glossary On
Versions: 1 2 3 4 5 6 7 8 9 10 11 12 13 14 15 16 17 18 19 20 21 22 23 24 25 26 27 28 29 30 31 32 33 34 35 36 37 38 39 40 41 42 43 44 45 46 47 48 49 50
000
ASUS43 KLSX 200807
RWRMO

WEATHER SUMMARY FOR MISSOURI
NATIONAL WEATHER SERVICE SPRINGFIELD MO
300 AM CDT WED AUG 20 2014

NOTE: "FAIR" INDICATES FEW OR NO CLOUDS BELOW 12,000 FEET WITH NO
       SIGNIFICANT WEATHER AND/OR OBSTRUCTIONS TO VISIBILITY.
       CURRENT SKY AND/OR WEATHER CONDITIONS ARE NOT AVAILABLE FOR
       CHILLICOTHE AND FARMINGTON.

MOZ001>031-035>038-043-044-053-054-200900-
...NORTHERN AND WESTERN MISSOURI...

CITY           SKY/WX    TMP DP  RH WIND       PRES   REMARKS
KANSAS CTY INT CLEAR     76  70  82 SW9       29.83S
KANSAS C DTWN  CLEAR     84  68  58 SW12      29.82S
LEE`S SUMMIT   CLEAR     77  69  76 SW9       29.85S
ST JOSEPH      CLEAR     73  71  93 S5        29.81S
CHILLICOTHE      N/A     75  72  90 CALM      29.83F
KIRKSVILLE     PTCLDY    70  68  93 CALM      29.85F

$$
MOZ066>068-077>081-088>096-101>105-200900-
...SOUTHWEST MISSOURI...

CITY           SKY/WX    TMP DP  RH WIND       PRES   REMARKS
SPRINGFIELD    CLEAR     77  70  79 SW7       29.91R
JOPLIN         PTCLDY    79  71  76 SW9       29.90R

$$
MOZ032>034-039>042-045>050-055>058-069>072-200900-
...CENTRAL MISSOURI...

CITY           SKY/WX    TMP DP  RH WIND       PRES   REMARKS
COLUMBIA       PTCLDY    74  71  91 CALM      29.86R
JEFFERSON CITY PTCLDY    71  70  96 CALM      29.85R
ROLLA          CLEAR     73  69  87 SW8       29.87R
SEDALIA        PTCLDY    77  70  79 SW9       29.86S
WHITEMAN AFB   CLEAR     77  63  61 SW10      29.84S
OSAGE BEACH    CLEAR     72  66  83 CALM      29.87S

$$
MOZ051-052-059>065-200900-
...EAST CENTRAL MISSOURI...

CITY           SKY/WX    TMP DP  RH WIND       PRES   REMARKS
ST LOUIS INTL  CLEAR     75  71  87 CALM      29.85S
SPIRIT OF STL  CLEAR     70  69  97 CALM      29.84R
ST CHARLES     CLEAR     72  70  93 CALM      29.83S

$$
MOZ072>076-082>087-097>100-106>115-200900-
...SOUTH CENTRAL AND SOUTHEAST MISSOURI...

CITY           SKY/WX    TMP DP  RH WIND       PRES   REMARKS
CAPE GIRARDEAU CLEAR     68  67  96 CALM      29.85R
FARMINGTON     CLEAR     72  68  88 W3        29.88S
POPLAR BLUFF   CLEAR     75  69  81 S5        29.85R
WEST PLAINS    CLEAR     75  70  84 SW5       29.93S

$$


USA.gov is the U.S. government's official web portal to all federal, state and local government web resources and services.